Other Public Products
Issued by NWS Grand Forks, ND

Home | Current Version | Previous Version | Graphics & Text | Print | Product List | Glossary On
Versions: 1 2 3 4 5 6 7 8 9 10 11 12 13 14 15 16 17 18 19 20 21 22 23 24 25 26 27 28 29 30 31 32 33 34 35 36 37 38 39 40 41 42 43 44 45 46 47 48 49 50
144
FPUS83 KFGF 241210
OPUFGF
PRAIRIE TO PINES WEATHER ROUNDUP
NATIONAL WEATHER SERVICE EASTERN NORTH DAKOTA/GRAND FORKS ND
600 AM CST FRI FEB 24 2017

 **SATELLITE DATA USED TO AUGMENT SKY COVER AT AUTOMATED STATIONS**
 *****  WEATHER ACROSS EASTERN NORTH DAKOTA  *****

CITY           SKY/WX    TMP DP  RH WIND       PRES   REMARKS
GRAND FORKS    MOCLDY    17   7  64 NE6       30.14R WCI   9
6HR MIN TEMP:  16; 6HR MAX TEMP:  18;

GRAND FORKS AF CLOUDY    16  12  85 NE6       30.13R WCI   7
GRAND CITY NWS NOT AVBL
BUXTON         NOT AVBL
DEVILS LAKE    FAIR      15  12  88 NW7       30.11S WCI   5
6HR MIN TEMP:  14; 6HR MAX TEMP:  19;

FARGO          FAIR      19  12  74 N13       30.11S WCI   6
6HR MIN TEMP:  19; 6HR MAX TEMP:  22;

WAHPETON ARPT  FAIR      19  10  68 N18       30.06F WCI   4
$$

 *****  WEATHER ACROSS CENTRAL AND WESTERN NORTH DAKOTA  *****

CITY           SKY/WX    TMP DP  RH WIND       PRES   REMARKS
JAMESTOWN      CLOUDY    20  16  84 N7        30.08S WCI  11
6HR MIN TEMP:  18; 6HR MAX TEMP:  20;

BISMARCK       CLOUDY    18  12  77 NW5       30.13R WCI  11
6HR MIN TEMP:  15; 6HR MAX TEMP:  19;

MINOT          CLOUDY    20  15  81 NW7       30.13R WCI  11
6HR MIN TEMP:  18; 6HR MAX TEMP:  26;

MINOT AFB      NOT AVBL
GARRISON         N/A     19  14  81 NW7       30.12R WCI  10
6HR MIN TEMP:   9; 6HR MAX TEMP:  19;

WILLISTON      CLOUDY    15  12  88 CALM      30.14S
6HR MIN TEMP:   8; 6HR MAX TEMP:  15;

DICKINSON      FAIR       9   6  88 NW7       30.06F WCI  -2
6HR MIN TEMP:   3; 6HR MAX TEMP:  13;

HETTINGER      FAIR      13   7  77 CALM      30.09R
6HR MIN TEMP:  11; 6HR MAX TEMP:  17;

$$

 *****  OTHER OBSERVATIONS NORTHEAST NORTH DAKOTA  *****

CITY           SKY/WX    TMP DP  RH WIND       PRES   REMARKS
WALHALLA       NOT AVBL
LANGDON        NOT AVBL
CAVALIER         N/A     14   9  79 NE5       30.15S WCI   6
GRAFTON        FAIR      12  10  92 N3        30.17R
CANDO          NOT AVBL
FORT TOTTEN      N/A     13  12  96 W2        29.95S
ROLLA          FAIR      14   9  79 N18       30.10R WCI  -3
RUGBY            N/A      9   9 100 NW5       30.12S WCI   0
 ***** THE ABOVE OBSERVATIONS ARE NON NWS ARE NOT QUALITY
        CONTROLLED AND MAY MIS-REPORT RAIN FOR SNOW...
$$

 *****  OTHER OBSERVATIONS SOUTHEAST NORTH DAKOTA *****

CITY           SKY/WX    TMP DP  RH WIND       PRES   REMARKS
COOPERSTOWN    CLOUDY    19  16  86 N6        30.09S WCI  11
VALLEY CITY    CLOUDY    18  18 100 N10       30.11S WCI   6
OAKES          NOT AVBL
GWINNER        FAIR      21  18  86 N16       30.08S WCI   7
SHEYENNE NWR     N/A     18  12  77 N7        29.95S WCI   9
BUFFALO        NOT AVBL
WYNDMERE       NOT AVBL
 ***** THE ABOVE OBSERVATIONS ARE NON NWS ARE NOT QUALITY
       CONTROLLED AND MAY MIS-REPORT RAIN FOR SNOW...
$$

  *****  WEATHER ACROSS NORTHERN MINNESOTA  *****

CITY           SKY/WX    TMP DP  RH WIND       PRES   REMARKS
FLAG ISLAND    FAIR       5   1  85 NW5       30.10R WCI  -4
WARROAD        FAIR       3   0  85 NW3       30.11R
ROSEAU         FAIR       5   0  78 CALM      30.11S
HALLOCK        CLOUDY    12   7  79 N7        30.14R WCI   2
THF RVR FALLS  FAIR       9   5  84 N7        30.12R WCI  -2
6HR MIN TEMP:   9; 6HR MAX TEMP:  16;

HALSTAD          N/A     17  10  74 N12         N/A  WCI   4
FOSSTON        FAIR      10   5  79 N9        30.09R WCI  -2
BAUDETTE       FAIR       4   0  83 NW3       30.08R
6HR MIN TEMP:   4; 6HR MAX TEMP:  11;

WASKISH        FAIR       7   3  85 N3        30.07R
CROOKSTON      FAIR      16   7  67 N7        30.14S WCI   6
$$
  *****  WEATHER ACROSS CENTRAL AND WEST MINNESOTA  *****

CITY           SKY/WX    TMP DP  RH WIND       PRES   REMARKS
BEMIDJI        FAIR       8   4  86 NW6       30.04F WCI  -3
PARK RAPIDS    FAIR      12   4  70 N10       30.00F WCI  -1
6HR MIN TEMP:  12; 6HR MAX TEMP:  19;

WADENA         FAIR      14   9  79 N13G20    29.98F WCI   0
DETROIT LAKES  FAIR      14   9  79 N3        30.05F
MOORHEAD       FAIR      18  10  73 N15       30.11S WCI   3
FERGUS FALLS   FAIR      16   9  73 N17G23    30.06F WCI   0
ELBOW LAKE     FAIR      17  10  73 NE16      30.00S WCI   2
MORRIS MN      FAIR      19  12  73 N21       29.98R WCI   3
STAPLES        FAIR      14   9  79 N13       29.98S WCI   0
WHEATON        FAIR      18  10  73 N20       30.05S WCI   1
$$
  *****  WEATHER ELSEWHERE ACROSS MINNESOTA  *****

CITY           SKY/WX    TMP DP  RH WIND       PRES   REMARKS
DULUTH         MOCLDY    18  12  77 N9        29.93S WCI   7
6HR MIN TEMP:  18; 6HR MAX TEMP:  21;

INTRNTL FALLS  FAIR      10   2  69 N5        30.06R WCI   2
6HR MIN TEMP:   9; 6HR MAX TEMP:  14;

ELY            FAIR      12   3  67 N3        29.97S
CLOQUET        MOCLDY    18  12  79 N9G16     29.94S WCI   6
BRAINERD       FAIR      16   9  74 N12       29.97F WCI   3
6HR MIN TEMP:  16; 6HR MAX TEMP:  21;

HIBBING        FAIR      13   7  77 N8        29.97F WCI   2
6HR MIN TEMP:  13; 6HR MAX TEMP:  17;

ALEXANDRIA     FAIR      18   9  68 N17       29.96R WCI   3
6HR MIN TEMP:  18; 6HR MAX TEMP:  23;

SAINT CLOUD    FAIR      21  12  68 N17G25    29.90F WCI   7
6HR MIN TEMP:  21; 6HR MAX TEMP:  26;

MINNEAPOLIS    CLOUDY    26  15  63 N24       29.80F WCI  11
6HR MIN TEMP:  26; 6HR MAX TEMP:  29;

$$

  *****  WEATHER ACROSS SOUTH DAKOTA  *****

CITY           SKY/WX    TMP DP  RH WIND       PRES   REMARKS
SIOUX FALLS    CLOUDY    23  19  85 N26G35    29.85R FOG     WCI   6
6HR MIN TEMP:  23; 6HR MAX TEMP:  28; 6HR PCP: TRACE;

BROOKINGS      CLOUDY    19  14  81 N16G26    29.88R WCI   4
WATERTOWN      FAIR      18  10  71 N24G36    29.93S WCI   0
6HR MIN TEMP:  18; 6HR MAX TEMP:  22;

HURON          FAIR      20  13  74 N22G30    29.99S WCI   3
6HR MIN TEMP:  20; 6HR MAX TEMP:  25;

SISSETON         N/A     19  14  81 N22       30.03S WCI   2
ABERDEEN       FAIR      20  12  71 N17       30.06S WCI   5
6HR MIN TEMP:  19; 6HR MAX TEMP:  22;

MITCHELL       CLOUDY    23  17  78 N23G31    29.95R WCI   7
PIERRE         CLOUDY    21  14  74 N16       30.06R WCI   7
6HR MIN TEMP:  21; 6HR MAX TEMP:  28;

MOBRIDGE       FAIR      20  14  77 N13       30.06S WCI   7
RAPID CITY     CLOUDY    19  14  81 N15       30.01R WCI   5
6HR MIN TEMP:  19; 6HR MAX TEMP:  24; 6HR PCP:  0.01;

$$

  *****  SOME WEATHER IN NEARBY STATES *****

CITY           SKY/WX    TMP DP  RH WIND       PRES   REMARKS
GLASGOW MT     CLOUDY    24  20  84 SE7       30.09R WCI  16
6HR MIN TEMP:  23; 6HR MAX TEMP:  25;

GREAT FALLS MT CLOUDY    23  21  92 CALM      29.96R
6HR MIN TEMP:  23; 6HR MAX TEMP:  25;

CHEYENNE WY    LGT SNOW  13   9  84 N8        29.81S FOG     WCI   2
6HR MIN TEMP:  11; 6HR MAX TEMP:  14; 6HR PCP:  0.02;

SCOTTSBLUFF NE CLOUDY    20  15  81 N8        29.93R WCI  10
6HR MIN TEMP:  20; 6HR MAX TEMP:  23; 6HR PCP: TRACE;

OMAHA NE       FLURRIES  31  27  85 N18       29.68R WCI  19
6HR MIN TEMP:  31; 6HR MAX TEMP:  35; 6HR PCP:  0.02;

DES MOINES IA  DRIZZLE   35  32  88 NE20G28   29.54R FOG     WCI  24
6HR MIN TEMP:  35; 6HR MAX TEMP:  41; 6HR PCP:  0.10;

DAVENPORT IA   CLOUDY    38  36  92 NE13      29.45F
6HR MIN TEMP:  37; 6HR MAX TEMP:  38; 6HR PCP: TRACE;

CHICAGO IL     LGT RAIN  40  38  93 N12       29.49F
6HR MIN TEMP:  39; 6HR MAX TEMP:  40; 6HR PCP:  0.10;

EAU CLAIRE WI  LGT SNOW  27  26  96 NE9       29.76F VSB 3/4 WCI  18
6HR MIN TEMP:  27; 6HR MAX TEMP:  31; 6HR PCP:  0.46;

LA CROSSE WI   LGT SNOW  32  28  85 N14       29.69F FOG     WCI  22
6HR MIN TEMP:  32; 6HR MAX TEMP:  35; 6HR PCP:  0.25;

$$

  *****  SOME NATIONAL WEATHER *****

CITY           SKY/WX    TMP DP  RH WIND       PRES   REMARKS
LA GUARDIA NY  FAIR      53  48  83 S9        29.92S
6HR MIN TEMP:  49; 6HR MAX TEMP:  56;

RALEIGH NC     FAIR      50  48  93 CALM      29.93S



USA.gov is the U.S. government's official web portal to all federal, state and local government web resources and services.